Terminal Aerodrome Forecast
Issued by NWS Grand Forks, ND

Home | Current Version | Previous Version | Text Only | Print | Product List | Glossary On
Versions: 1 2 3 4 5 6 7 8 9 10 11 12
000
FTUS43 KFGF 020500
TAFGFK
TAF
KGFK 020522Z 0206/0306 14003KT P6SM SCT250
     FM021600 25006KT P6SM SCT070
     FM030100 36006KT P6SM SCT070=

USA.gov is the U.S. government's official web portal to all federal, state and local government web resources and services.